RH
77 84 82 75 77 69 81 88 90 75 62 68 70 70 62 54 58 60 59 64 62 54 51 53 39 35 32 29 21 18 25 32 48 54 51 48 42 37 38 40 48 60 65 68
76 87 70 72 77 82 94 94 77 67 62 68 70 72 61 62 62 64 70 75 75 68 46 48 46 36 34 27 23 16 20 28 44 49 44 40 36 34 42 53 57 69 76 75
87 68 70 78 85 79 74 88 83 84 64 68 79 85 65 52 72 74 72 84 78 75 66 44 39 36 30 29 27 15 16 25 42 48 44 39 37 49 76 68 59 52 64 68
91 75 79 87 89 74 88 68 74 79 91 90 67 88 68 80 77 74 86 86 78 74 65 63 43 41 43 32 26 25 25 53 52 48 43 36 42 96 98 97 80 72 69 75
74 80 89 92 78 70 77 61 66 72 98 98 89 98 71 77 86 93 93 87 98 99 80 75 63 70 100 77 72 78 81 66 50 42 39 63 99 98 100 94 81 67 76 92
84 79 85 77 75 68 62 77 84 93 98 95 78 91 83 99 100 99 94 99 98 99 100 98 98 97 97 96 93 90 79 68 62 76 92 100 100 99 94 76 80 75 96 98
78 86 84 84 95 79 86 100 96 86 91 85 84 95 84 100 98 99 97 100 100 100 96 100 99 99 90 89 90 86 73 63 66 79 84 86 94 95 99 92 99 99 99 100
96 82 87 87 87 91 98 100 97 96 93 90 83 95 99 96 98 100 100 100 99 99 100 100 99 98 100 100 99 99 97 98 95 96 88 95 97 100 100 100 98 98 95 98
94 86 61 85 77 83 87 94 88 100 87 94 83 89 95 90 95 97 99 99 100 100 90 94 96 100 87 90 100 100 100 100 100 100 99 100 100 100 100 100 100 100 100 95
78 98 69 66 79 81 83 78 86 88 96 92 75 93 100 98 99 97 97 99 95 89 83 82 87 68 67 73 86 95 97 98 100 100 100 100 100 100 100 99 100 98 99 99
76 88 74 62 66 72 71 70 78 84 90 90 89 89 96 99 90 88 83 82 58 54 52 50 49 52 49 48 41 72 52 78 75 76 94 99 100 100 100 100 100 100 99 100
73 83 97 68 55 57 63 65 75 86 73 85 80 85 70 80 78 75 60 45 44 43 52 52 45 38 37 39 38 37 29 24 26 27 30 36 48 49 61 66 70 71 71 74
67 82 89 51 43 51 63 66 65 78 81 84 82 73 68 68 72 64 55 41 46 42 42 47 45 41 39 32 24 25 26 26 22 19 18 17 16 15 15 16 16 16 18 20
63 80 71 67 48 59 74 67 70 78 87 75 80 68 72 74 71 66 56 45 47 49 44 41 43 45 43 37 32 26 23 19 17 14 13 11 11 11 11 11 10 10 10 10
68 82 81 75 69 69 72 70 66 81 72 73 54 78 62 70 72 65 59 50 46 50 51 35 33 34 29 25 24 24 22 19 18 14 12 11 11 11 10 10 10 9 9 9
70 78 74 82 66 77 69 64 65 65 74 77 78 79 62 57 63 65 62 57 50 53 54 40 29 28 26 23 22 20 17 16 17 17 17 18 16 14 12 10 10 10 8 8
70 77 81 77 59 62 44 47 61 57 68 64 76 56 64 68 72 64 60 60 53 55 55 44 25 25 24 20 20 18 18 18 18 18 16 16 16 16 16 17 18 18 18 20
73 70 79 86 56 22 18 49 49 56 57 66 63 59 62 57 53 55 55 55 53 57 54 45 29 28 24 22 22 21 21 22 20 20 20 20 19 18 19 18 19 20 22 24
78 72 74 73 73 38 24 39 55 50 33 52 60 65 58 60 62 59 52 55 56 55 50 42 24 25 25 26 26 25 22 21 21 19 18 17 16 16 15 14 15 19 17 19
74 72 67 76 57 27 10 34 48 38 24 28 51 61 69 66 72 65 38 53 53 46 47 26 26 28 32 34 32 27 23 20 17 16 17 19 20 19 21 25 28 31 34 35
84 83 86 80 78 56 34 47 44 18 13 22 47 50 66 73 53 31 24 42 46 42 25 24 29 34 38 36 33 26 20 16 16 18 19 21 25 24 24 26 32 36 38 40
74 85 90 84 79 57 43 52 37 21 24 35 36 41 52 50 47 44 35 34 34 26 22 26 31 34 33 29 25 22 19 18 19 19 21 19 20 23 24 28 29 34 48 50
65 52 52 62 55 36 42 40 31 30 33 34 32 30 38 48 50 46 39 36 34 24 24 28 29 29 28 27 27 26 20 18 19 18 16 17 20 22 24 28 33 44 65 96
59 54 60 52 40 51 37 31 30 29 31 31 35 36 37 38 41 48 48 42 38 28 23 26 27 27 29 29 27 23 19 18 17 18 18 17 17 21 34 55 91 100 100 100
54 61 62 68 56 38 28 31 29 29 30 33 35 38 42 39 40 43 45 43 40 30 23 23 25 26 26 24 22 18 15 15 17 19 19 19 29 58 97 100 100 100 100 100
61 62 58 44 34 32 30 30 34 36 34 33 37 38 36 42 42 43 45 43 42 34 25 21 24 26 26 26 23 20 20 23 25 23 23 28 56 96 100 100 64 86 93 83
Wind_Speed
5 5 0 3 2 1 1 2 9 11 10 6 14 16 23 27 23 21 19 22 28 29 28 26 25 27 29 28 29 33 29 23 24 23 23 24 26 27 28 29 29 28 27 29
4 0 3 2 2 1 1 7 9 12 4 6 13 19 20 14 9 10 12 22 26 26 24 22 22 24 28 31 29 30 31 25 24 24 24 25 26 27 27 27 30 31 32 33
3 2 3 2 2 7 9 9 8 10 7 11 11 8 4 2 7 10 20 25 25 24 26 24 20 20 22 31 29 32 31 28 27 25 25 27 28 28 28 29 31 33 37 37
2 2 1 2 5 6 6 7 13 11 7 4 2 6 2 11 9 13 25 27 26 24 25 20 17 16 19 25 24 27 29 26 27 26 27 29 29 25 27 29 30 33 39 40
4 2 3 3 5 8 8 1 7 8 9 6 1 4 3 13 13 19 26 21 23 19 14 9 5 4 5 9 14 21 24 27 28 31 30 26 25 26 26 30 35 37 42 39
7 4 3 4 4 11 9 10 9 8 3 3 3 4 2 7 8 12 22 19 17 20 20 17 11 7 6 2 8 14 18 20 21 23 20 18 19 21 24 29 33 29 21 23
4 3 4 4 4 2 5 4 3 2 1 4 4 3 5 7 11 8 17 17 21 24 21 23 18 19 12 8 10 17 21 22 24 23 18 17 18 17 15 14 13 12 15 21
4 6 4 6 5 3 2 1 1 4 3 4 2 4 3 10 13 17 17 15 26 28 28 28 26 24 23 21 10 8 11 14 16 19 18 14 12 11 10 2 3 8 8 7
3 5 2 5 3 2 2 2 2 4 2 3 2 1 3 13 11 16 19 24 24 24 30 29 22 27 28 21 28 27 29 21 17 15 15 17 14 11 8 2 1 0 2 6
1 6 4 3 3 5 3 3 2 1 4 4 2 2 5 10 10 8 10 15 16 23 21 18 18 21 20 21 27 27 30 28 25 20 18 16 15 11 7 4 4 2 3 5
2 2 5 2 2 0 1 1 2 1 2 2 3 2 4 3 5 6 5 4 9 11 11 9 12 15 17 17 20 20 22 22 22 21 16 15 12 9 6 4 4 1 6 7
4 3 5 7 3 2 2 3 3 2 2 1 1 4 6 6 2 3 2 5 7 8 9 9 10 13 16 18 19 18 20 20 19 16 14 14 11 10 7 7 5 6 9 10
3 2 5 7 4 2 2 2 2 1 2 3 1 4 1 4 3 4 3 3 5 6 8 9 10 13 15 17 17 18 19 19 18 16 15 13 12 10 10 10 10 12 13 14
5 3 6 5 6 2 5 3 3 2 2 2 5 5 5 5 5 5 7 6 5 7 9 10 10 12 15 16 16 16 17 17 16 15 14 14 14 14 15 14 14 14 15 16
4 4 4 7 12 6 8 10 6 6 5 5 4 5 6 8 8 13 10 9 8 7 8 10 11 12 14 15 15 15 16 16 16 16 15 16 16 15 15 15 15 16 17 18
1 3 2 5 3 5 7 10 9 6 4 7 5 7 10 7 12 12 16 13 12 9 6 8 9 10 10 11 11 11 11 12 14 16 18 18 19 20 21 22 23 23 24 24
0 2 4 5 2 7 6 6 7 5 4 6 6 8 4 5 10 18 18 16 15 10 7 6 6 6 7 9 10 10 12 14 16 17 19 20 21 23 24 25 26 28 29 30
2 1 2 4 7 4 4 1 3 6 6 9 6 5 7 8 17 15 17 17 16 12 9 7 5 5 5 6 7 10 12 15 17 19 21 23 25 26 26 28 30 31 33 34
8 3 2 2 2 8 1 3 5 5 6 7 12 7 8 5 4 15 18 18 14 11 10 7 6 6 4 6 9 11 13 15 18 20 21 23 24 25 25 26 27 28 28 29
4 2 2 2 2 5 4 3 6 3 4 4 8 8 10 10 2 4 8 20 14 11 9 8 8 7 4 6 9 11 14 16 17 19 21 21 21 22 22 24 25 26 27 27
3 2 5 4 4 8 5 6 8 2 5 4 6 9 19 6 12 2 6 13 14 12 10 9 8 5 4 7 10 12 14 16 17 19 20 20 21 22 22 23 24 26 25 24
7 6 4 3 4 8 9 6 6 4 3 3 6 7 20 25 11 12 8 11 12 12 11 10 7 4 5 7 9 12 13 15 17 18 19 20 21 22 22 23 22 23 25 27
3 6 4 9 6 4 19 7 12 8 9 11 11 9 12 20 24 18 15 16 15 13 11 9 6 6 7 8 9 11 13 16 18 19 21 22 21 21 21 22 23 25 26 26
5 7 4 2 4 8 23 25 31 31 33 33 27 17 14 19 20 23 20 18 17 14 11 9 9 9 9 9 10 12 15 18 21 22 23 23 22 20 20 22 23 25 25 26
5 8 5 7 12 25 25 11 8 11 14 17 19 20 25 23 23 22 23 22 18 15 14 13 12 10 10 10 12 15 18 19 21 22 23 23 21 20 21 22 23 24 24 22
15 8 6 8 12 14 18 21 12 21 19 19 23 25 24 25 27 24 23 21 19 17 16 14 12 11 11 10 12 15 17 19 20 21 23 23 20 19 18 22 25 24 24 23
Wind_Direction
14 55 235 225 202 81 100 263 277 273 270 298 272 279 281 296 290 278 285 303 304 298 300 281 258 250 241 245 246 238 239 240 238 239 241 248 256 263 264 263 262 264 261 256
19 124 211 164 141 214 211 285 291 291 279 204 277 287 292 292 281 295 301 319 318 308 303 287 260 248 241 239 240 237 235 237 236 236 248 255 265 265 265 260 259 259 261 259
156 262 126 192 254 290 282 255 260 241 316 273 274 264 273 291 307 293 320 319 317 305 297 290 270 239 232 241 241 232 231 232 235 237 248 258 260 262 258 258 261 264 263 265
241 328 212 249 265 223 280 218 245 271 294 309 3 297 342 343 320 339 327 319 329 317 304 285 272 263 248 244 243 238 229 227 234 241 252 257 256 254 259 269 274 281 280 276
267 259 252 272 244 165 240 267 270 262 265 288 188 263 287 353 340 335 322 317 344 344 349 358 333 283 243 224 227 221 221 225 232 242 250 248 246 257 270 275 279 284 286 279
252 246 248 236 277 229 263 307 279 256 258 253 206 199 324 4 324 313 327 351 15 38 55 61 62 100 105 165 222 228 231 240 248 255 247 243 251 264 278 291 295 292 285 284
306 219 248 218 291 221 232 273 318 343 332 241 185 162 280 338 348 329 325 23 28 47 61 60 51 62 50 4 269 242 237 236 245 251 244 245 254 265 286 312 312 279 269 254
356 326 195 168 220 235 214 273 315 295 313 303 183 309 13 3 6 3 10 23 47 46 51 51 47 50 49 40 74 124 215 205 221 212 214 223 238 242 248 237 344 4 13 336
336 274 282 194 193 196 251 283 211 274 259 287 304 299 147 2 4 16 19 29 33 35 48 38 38 39 41 36 52 73 110 129 163 176 190 180 180 191 187 188 109 184 2 334
238 289 239 299 175 239 228 277 334 1 346 318 348 358 344 341 348 26 11 24 29 40 44 32 22 44 41 37 42 53 69 86 91 105 146 161 164 153 142 160 147 152 286 265
201 192 286 317 189 183 318 353 313 331 173 299 312 332 232 259 319 11 43 7 22 52 50 19 18 38 49 48 55 54 60 66 66 62 73 85 91 108 121 145 87 2 278 330
206 184 271 238 223 203 245 190 151 131 306 262 258 265 183 216 234 347 22 16 45 41 50 53 42 36 45 51 58 64 58 65 67 63 61 59 56 50 38 24 352 329 328 319
182 268 317 351 7 9 200 189 207 128 80 232 181 268 210 245 164 143 235 298 346 22 42 41 45 47 46 47 43 48 55 55 54 49 47 43 39 29 20 7 353 340 331 323
172 199 197 206 231 198 281 232 170 189 153 201 229 290 256 246 241 218 217 244 296 344 9 27 38 42 42 41 45 46 51 53 52 46 41 38 32 23 14 5 355 346 340 333
163 254 197 252 253 239 248 255 213 189 224 186 202 223 242 218 210 223 241 251 276 309 343 4 20 29 30 30 34 37 39 37 35 32 28 26 21 13 5 358 354 348 342 337
5 270 326 275 253 201 261 239 227 222 215 250 262 270 219 228 208 210 222 228 244 265 307 339 4 11 20 31 33 33 33 32 28 24 22 18 11 6 1 355 351 346 342 337
295 343 1 273 320 298 289 233 187 200 195 164 192 231 164 202 212 219 223 225 235 248 265 299 325 346 10 20 22 22 25 24 20 16 11 7 4 1 359 357 353 350 349 346
223 2 171 279 334 353 254 135 191 225 238 221 266 229 207 230 236 239 232 234 237 239 244 264 294 326 349 6 12 14 18 17 13 10 6 2 360 357 355 353 350 348 347 345
197 137 257 293 278 288 223 209 185 178 285 212 227 221 220 235 233 249 231 231 237 236 238 264 285 295 316 358 11 10 9 7 6 3 357 354 350 348 344 341 339 336 333 332
95 30 168 170 238 245 232 197 179 144 295 205 213 231 177 160 196 250 223 221 223 225 240 261 269 279 317 358 6 0 1 359 355 352 350 347 344 339 340 338 335 335 337 337
166 178 199 225 274 286 235 164 150 127 229 220 264 244 187 190 213 219 191 194 208 221 239 246 253 271 323 350 350 348 344 342 346 347 345 342 340 339 335 330 332 334 335 336
176 158 201 145 210 280 157 113 180 219 174 302 320 253 214 219 226 227 215 206 216 227 234 236 239 263 303 324 326 327 330 335 340 338 336 336 335 333 330 328 329 331 340 340
253 200 188 192 216 243 197 228 231 272 285 290 289 304 249 231 232 229 224 222 224 227 229 233 242 266 283 295 308 319 323 331 330 329 331 333 331 327 327 329 333 337 342 337
240 192 231 340 282 237 260 262 262 273 278 284 281 274 265 245 242 238 237 229 227 228 235 241 249 261 273 290 305 316 325 327 327 329 332 332 328 327 333 335 338 332 324 326
216 147 207 258 278 280 281 274 295 296 296 288 288 273 266 261 251 242 234 229 228 229 233 241 250 261 276 293 309 315 317 321 326 331 333 333 332 335 332 330 331 326 326 319
202 207 197 239 233 236 268 288 300 302 291 292 299 293 284 261 248 246 237 231 231 233 235 241 250 260 276 294 309 318 325 328 330 333 337 335 335 333 326 326 331 334 329 334